Mountain Home, ID

11:02 AM MST on December 12, 2017 (GMT -0700)
Mountain Home Air Force Base

Weather History for KMUO - August, 2014

Change the Weather History Date:

Tuesday, August 12, 2014

  Actual Average Record
Temperature  
Mean Temperature 77 °F 76 °F  
Max Temperature 90 °F 94 °F 105 °F (1996)
Min Temperature 64 °F 57 °F 38 °F (1907)
Degree Days  
Heating Degree Days 0 0  
Month to date heating degree days 0 0  
Cooling Degree Days 12 11  
Month to date cooling degree days 153 145  
Growing Degree Days 28 (Base 50)    
Moisture  
Dew Point 55 °F    
Average Humidity 48    
Maximum Humidity 83    
Minimum Humidity 27    
Precipitation  
Precipitation 0.31 in 0.00 in 0.31 in (2014)
Month to date precipitation 0.36 0.05  
Sea Level Pressure  
Sea Level Pressure 29.95 in    
Wind  
Wind Speed 11 mph (ESE)    
Max Wind Speed 26 mph    
Max Gust Speed 33 mph    
Visibility 10 miles    
Events Rain , Thunderstorm    
T = Trace of Precipitation, MM = Missing Value Source: NWS Daily Summary

Daily Weather History Graph

Daily Weather History Graph

Search for Another Location

Airport or City:

Trip Planner

Search our weather history database for the weather conditions in past years. The results will help you decide how hot, cold, wet, or windy it might be!

Date:

Astronomy

Aug. 12, 2014 Rise Set
Actual Time 6:46 AM MDT 8:50 PM MDT
Civil Twilight 6:15 AM MDT 9:20 PM MDT
Nautical Twilight 5:36 AM MDT 9:58 PM MDT
Astronomical Twilight 4:55 AM MDT 10:40 PM MDT
Moon 9:54 PM MDT 9:13 AM MDT
Length of Visible Light 15h 05m
Length of Day
14h 03m
Waning Gibbous, 94% of the Moon is Illuminated
Aug 12
Waning Gibbous
Aug 17
Last Quarter
Aug 25
New
Sep 2
First Quarter
Sep 8
Full

Hourly Weather History & Observations

Time (MDT) Temp. Heat Index Dew Point Humidity Pressure Visibility Wind Dir Wind Speed Gust Speed Precip Events Conditions
12:58 AM 80.4 °F - 45.9 °F 30% 29.95 in 10.0 mi SSW 6.9 mph - N/A   Overcast
1:58 AM 74.5 °F - 46.4 °F 37% 29.96 in 10.0 mi South 8.1 mph - N/A   Overcast
2:58 AM 77.4 °F - 47.7 °F 35% 29.97 in 10.0 mi South 4.6 mph - N/A   Overcast
3:58 AM 76.6 °F - 49.5 °F 38% 29.98 in 10.0 mi SE 11.5 mph - N/A   Overcast
4:58 AM 72.5 °F - 54.5 °F 53% 29.97 in 10.0 mi East 9.2 mph - N/A   Overcast
5:58 AM 70.9 °F - 55.6 °F 58% 29.97 in 10.0 mi ESE 8.1 mph - N/A   Mostly Cloudy
6:58 AM 71.1 °F - 53.4 °F 54% 29.96 in 10.0 mi SE 8.1 mph - N/A   Overcast
7:58 AM 73.9 °F - 52.7 °F 47% 29.96 in 10.0 mi ESE 10.4 mph - N/A   Mostly Cloudy
8:58 AM 75.0 °F - 54.3 °F 48% 29.97 in 10.0 mi ESE 12.7 mph - N/A   Mostly Cloudy
9:58 AM 77.4 °F - 54.1 °F 44% 29.98 in 10.0 mi SE 15.0 mph - N/A   Light Drizzle
11:58 AM 84.6 °F - 50.9 °F 31% 29.94 in 10.0 mi ESE 19.6 mph 21.9 mph N/A   Scattered Clouds
12:58 PM 89.1 °F - 51.3 °F 27% 29.90 in 10.0 mi East 18.4 mph 25.3 mph N/A   Partly Cloudy
1:58 PM 88.0 °F - 51.6 °F 29% 29.91 in 10.0 mi ESE 13.8 mph - N/A   Mostly Cloudy
2:16 PM 87.8 °F 85.7 °F 53.6 °F 31% 29.98 in 10.0 mi East 8.1 mph - N/A Rain , Thunderstorm Light Thunderstorms and Rain
2:18 PM 87.8 °F 85.7 °F 53.6 °F 31% 29.99 in 6.0 mi East 6.9 mph - N/A Rain , Thunderstorm Light Thunderstorms and Rain
2:22 PM 86.0 °F 85.4 °F 59.0 °F 40% 30.02 in 6.0 mi South 16.1 mph - N/A Rain , Thunderstorm Thunderstorms and Rain
2:29 PM 73.4 °F - 59.0 °F 61% 30.02 in 6.0 mi ENE 8.1 mph 33.4 mph N/A Rain Light Rain
2:38 PM 75.2 °F - 57.2 °F 53% 30.01 in 6.0 mi Variable 5.8 mph - N/A Rain , Thunderstorm Light Thunderstorms and Rain
2:58 PM 77.5 °F - 61.2 °F 57% 29.92 in 10.0 mi NNE 15.0 mph - 0.31 in Thunderstorm Mostly Cloudy
3:03 PM 78.8 °F - 60.8 °F 54% 30.00 in 10.0 mi North 19.6 mph 23.0 mph N/A Thunderstorm Mostly Cloudy
3:58 PM 80.4 °F 80.2 °F 54.0 °F 40% 29.91 in 10.0 mi North 26.5 mph 33.4 mph N/A   Mostly Cloudy
4:58 PM 80.6 °F 80.3 °F 53.2 °F 39% 29.87 in 10.0 mi North 21.9 mph 31.1 mph N/A   Mostly Cloudy
5:58 PM 83.7 °F 82.4 °F 54.1 °F 36% 29.85 in 10.0 mi North 10.4 mph - N/A   Mostly Cloudy
6:58 PM 84.0 °F 83.2 °F 56.3 °F 39% 29.87 in 10.0 mi SSW 4.6 mph - N/A   Mostly Cloudy
7:34 PM 78.8 °F - 57.2 °F 47% 29.97 in 10.0 mi WNW 12.7 mph - N/A Rain Light Rain
7:38 PM 77.0 °F - 59.0 °F 54% 29.97 in 10.0 mi WNW 12.7 mph - N/A Rain Light Rain
7:43 PM 75.2 °F - 59.0 °F 57% 29.97 in 10.0 mi WNW 9.2 mph - N/A Rain Light Rain
7:58 PM 75.0 °F - 59.7 °F 59% 29.91 in 10.0 mi West 10.4 mph - 0.00 in   Mostly Cloudy
8:13 PM 77.0 °F - 59.0 °F 54% 29.97 in 10.0 mi WNW 18.4 mph - N/A   Light Drizzle
8:18 PM 77.0 °F - 59.0 °F 54% 29.97 in 10.0 mi WNW 18.4 mph 25.3 mph N/A   Light Drizzle
8:43 PM 75.2 °F - 59.0 °F 57% 29.97 in 10.0 mi NNW 19.6 mph 29.9 mph N/A   Mostly Cloudy
8:58 PM 74.5 °F - 57.2 °F 55% 29.91 in 10.0 mi NNW 16.1 mph - 0.00 in   Mostly Cloudy
9:58 PM 70.7 °F - 59.5 °F 68% 29.95 in 10.0 mi Variable 3.5 mph - N/A   Mostly Cloudy
10:58 PM 66.9 °F - 60.8 °F 81% 29.93 in 10.0 mi SW 8.1 mph - N/A   Scattered Clouds
11:58 PM 65.5 °F - 60.1 °F 83% 29.92 in 10.0 mi SW 6.9 mph - N/A   Scattered Clouds